JG6YCL-13 Weather Reports


time (UTC)temp
C
wind
direction
speed
KPH
gust
KPH
rain 1hr
cm
rain 24hr
cm
rain mn
cm
humidity
%
barometer
mb
20260505032742 22 0.0 0.0 0.00 0.00 0.00 39 1007.9
20260505032228 22 0.0 0.0 0.00 0.00 0.00 41 1007.9
20260505031727 22 0.0 0.0 0.00 0.00 0.00 41 1008.0
20260505031226 22 0.0 0.0 0.00 0.00 0.00 41 1008.1
20260505030725 22 0.0 0.0 0.00 0.00 0.00 42 1008.0
20260505030224 22 0.0 0.0 0.00 0.00 0.00 42 1008.1
20260505025723 22 0.0 0.0 0.00 0.00 0.00 43 1008.1
20260505025221 22 0.0 0.0 0.00 0.00 0.00 43 1008.3
20260505024721 22 0.0 0.0 0.00 0.00 0.00 43 1008.4
20260505024220 22 0.0 0.0 0.00 0.00 0.00 40 1008.4
20260505023719 22 0.0 0.0 0.00 0.00 0.00 40 1008.5
20260505023218 22 0.0 0.0 0.00 0.00 0.00 42 1008.4
20260505022718 22 0.0 0.0 0.00 0.00 0.00 42 1008.5
20260505022216 22 0.0 0.0 0.00 0.00 0.00 33 1008.7
20260505021715 22 0.0 0.0 0.00 0.00 0.00 34 1008.7
20260505021214 22 0.0 0.0 0.00 0.00 0.00 33 1008.7
20260505020714 22 0.0 0.0 0.00 0.00 0.00 33 1008.8
20260505020212 22 0.0 0.0 0.00 0.00 0.00 33 1008.8
20260505015711 22 0.0 0.0 0.00 0.00 0.00 32 1008.8
20260505015210 22 0.0 0.0 0.00 0.00 0.00 33 1008.9
20260505014709 22 0.0 0.0 0.00 0.00 0.00 32 1008.9
20260505014209 22 0.0 0.0 0.00 0.00 0.00 32 1008.9
20260505013716 22 0.0 0.0 0.00 0.00 0.00 32 1008.8
20260505013207 21 0.0 0.0 0.00 0.00 0.00 33 1008.9
20260505012711 21 0.0 0.0 0.00 0.00 0.00 34 1008.9
20260505012204 21 0.0 0.0 0.00 0.00 0.00 34 1009.0
20260505011709 21 0.0 0.0 0.00 0.00 0.00 34 1009.0
20260505011207 21 0.0 0.0 0.00 0.00 0.00 37 1009.0
20260505010708 21 0.0 0.0 0.00 0.00 0.00 35 1009.1
20260505010209 21 0.0 0.0 0.00 0.00 0.00 33 1009.1
20260505005709 20 0.0 0.0 0.00 0.00 0.00 32 1009.2
20260505005159 20 0.0 0.0 0.00 0.00 0.00 34 1009.1
20260505004657 20 0.0 0.0 0.00 0.00 0.00 37 1009.1
20260505004156 20 0.0 0.0 0.00 0.00 0.00 38 1009.1
20260505003656 20 0.0 0.0 0.00 0.00 0.00 36 1009.0
20260505003155 20 0.0 0.0 0.00 0.00 0.00 41 1009.0
20260505002653 19 0.0 0.0 0.00 0.00 0.00 46 1008.9
20260505002152 18 0.0 0.0 0.00 0.00 0.00 46 1008.9
20260505001652 18 0.0 0.0 0.00 0.00 0.00 48 1009.0
20260505001150 18 0.0 0.0 0.00 0.00 0.00 50 1009.0
20260505000649 18 0.0 0.0 0.00 0.00 0.00 53 1009.0
20260505000148 17 0.0 0.0 0.00 0.00 0.00 58 1009.1
20260504235648 17 0.0 0.0 0.00 0.00 0.00 63 1009.0
20260504235146 17 0.0 0.0 0.00 0.00 0.00 64 1009.0
20260504234645 17 0.0 0.0 0.00 0.00 0.00 65 1009.0
20260504234144 17 0.0 0.0 0.00 0.00 0.00 67 1009.0
20260504233643 16 0.0 0.0 0.00 0.00 0.00 69 1009.0
20260504233142 16 0.0 0.0 0.00 0.00 0.00 70 1009.0
20260504232642 16 0.0 0.0 0.00 0.00 0.00 71 1009.0
20260504232141 16 0.0 0.0 0.00 0.00 0.00 71 1008.9
20260504231639 16 0.0 0.0 0.00 0.00 0.00 73 1009.0
20260504231138 15 0.0 0.0 0.00 0.00 0.00 73 1008.9
20260504230637 15 0.0 0.0 0.00 0.00 0.00 74 1008.9
20260504230136 15 0.0 0.0 0.00 0.00 0.00 74 1008.8
20260504225636 15 0.0 0.0 0.00 0.00 0.00 75 1008.8
20260504225135 15 0.0 0.0 0.00 0.00 0.00 77 1008.7
20260504224636 14 0.0 0.0 0.00 0.00 0.00 79 1008.7
20260504224135 14 0.0 0.0 0.00 0.00 0.00 82 1008.6
20260504223631 14 0.0 0.0 0.00 0.00 0.00 83 1008.6
20260504223131 13 0.0 0.0 0.00 0.00 0.00 83 1008.6
20260504222629 13 0.0 0.0 0.00 0.00 0.00 84 1008.6
20260504222128 13 0.0 0.0 0.00 0.00 0.00 85 1008.7
20260504221627 13 0.0 0.0 0.00 0.00 0.00 86 1008.6
20260504221126 13 0.0 0.0 0.00 0.00 0.00 87 1008.6
20260504220625 13 0.0 0.0 0.00 0.00 0.00 87 1008.6
20260504220124 12 0.0 0.0 0.00 0.00 0.00 88 1008.5
20260504215623 12 0.0 0.0 0.00 0.00 0.00 88 1008.6
20260504215122 12 0.0 0.0 0.00 0.00 0.00 89 1008.5
20260504214622 12 0.0 0.0 0.00 0.00 0.00 89 1008.5
20260504214120 12 0.0 0.0 0.00 0.00 0.00 90 1008.5
20260504213619 12 0.0 0.0 0.00 0.00 0.00 90 1008.4
20260504213119 12 0.0 0.0 0.00 0.00 0.00 90 1008.5
20260504212617 12 0.0 0.0 0.00 0.00 0.00 91 1008.4
20260504212124 12 0.0 0.0 0.00 0.00 0.00 91 1008.4
20260504211615 12 0.0 0.0 0.00 0.00 0.00 91 1008.4
20260504211115 11 0.0 0.0 0.00 0.00 0.00 92 1008.3
20260504210616 11 0.0 0.0 0.00 0.00 0.00 91 1008.2
20260504210112 11 0.0 0.0 0.00 0.00 0.00 91 1008.0
20260504205611 11 0.0 0.0 0.00 0.00 0.00 91 1008.0
20260504205110 11 0.0 0.0 0.00 0.00 0.00 91 1008.0
20260504204611 11 0.0 0.0 0.00 0.00 0.00 91 1008.0
20260504204109 11 0.0 0.0 0.00 0.00 0.00 91 1007.9
20260504203608 11 0.0 0.0 0.00 0.00 0.00 90 1007.9
20260504203106 11 0.0 0.0 0.00 0.00 0.00 89 1007.9
20260504202608 11 0.0 0.0 0.00 0.00 0.00 88 1007.8
20260504202105 11 0.0 0.0 0.00 0.00 0.00 88 1007.8
20260504201603 12 0.0 0.0 0.00 0.00 0.00 88 1007.8
20260504201102 12 0.0 0.0 0.00 0.00 0.00 88 1007.7
20260504200603 12 0.0 0.0 0.00 0.00 0.00 88 1007.6
20260504200101 12 0.0 0.0 0.00 0.00 0.00 88 1007.7
20260504195559 12 0.0 0.0 0.00 0.00 0.00 88 1007.6
20260504195058 12 0.0 0.0 0.00 0.00 0.00 88 1007.5
20260504194558 12 0.0 0.0 0.00 0.00 0.00 87 1007.5
20260504194056 12 0.0 0.0 0.00 0.00 0.00 87 1007.5
20260504193555 12 0.0 0.0 0.00 0.00 0.00 87 1007.4
20260504193058 12 0.0 0.0 0.00 0.00 0.00 87 1007.5
20260504192553 12 0.0 0.0 0.00 0.00 0.00 87 1007.4
20260504192053 12 0.0 0.0 0.00 0.00 0.00 86 1007.4
20260504191552 12 0.0 0.0 0.00 0.00 0.00 86 1007.4
20260504191051 12 0.0 0.0 0.00 0.00 0.00 87 1007.3
20260504190550 12 0.0 0.0 0.00 0.00 0.00 86 1007.3
20260504190048 12 0.0 0.0 0.00 0.00 0.00 87 1007.3
20260504185549 12 0.0 0.0 0.00 0.00 0.00 86 1007.3
20260504185048 12 0.0 0.0 0.00 0.00 0.00 86 1007.3
20260504184545 12 0.0 0.0 0.00 0.00 0.00 86 1007.3
20260504184044 12 0.0 0.0 0.00 0.00 0.00 86 1007.3
20260504183543 12 0.0 0.0 0.00 0.00 0.00 85 1007.3
20260504183043 12 0.0 0.0 0.00 0.00 0.00 86 1007.3
20260504182542 12 0.0 0.0 0.00 0.00 0.00 86 1007.3
20260504182041 12 0.0 0.0 0.00 0.00 0.00 86 1007.2
20260504181539 12 0.0 0.0 0.00 0.00 0.00 86 1007.2
20260504181040 12 0.0 0.0 0.00 0.00 0.00 86 1007.2
20260504180537 12 0.0 0.0 0.00 0.00 0.00 86 1007.2
20260504180037 12 0.0 0.0 0.00 0.00 0.00 85 1007.1
20260504175538 12 0.0 0.0 0.00 0.00 0.00 85 1007.1
20260504175048 13 0.0 0.0 0.00 0.00 0.00 86 1007.0
20260504174537 12 0.0 0.0 0.00 0.00 0.00 86 1007.0
20260504174039 13 0.0 0.0 0.00 0.00 0.00 86 1007.0
20260504173537 12 0.0 0.0 0.00 0.00 0.00 86 1006.9
20260504173030 13 0.0 0.0 0.00 0.00 0.00 85 1006.9
20260504172530 13 0.0 0.0 0.00 0.00 0.00 85 1007.0
20260504172028 13 0.0 0.0 0.00 0.00 0.00 85 1006.9
20260504171527 13 0.0 0.0 0.00 0.00 0.00 86 1006.9
20260504171026 13 0.0 0.0 0.00 0.00 0.00 86 1006.9
20260504170525 13 0.0 0.0 0.00 0.00 0.00 86 1006.8
20260504151005 14 0.0 0.0 0.00 0.00 0.00 78 1006.6
20260504150501 15 0.0 0.0 0.00 0.00 0.00 77 1006.6
20260504140950 16 0.0 0.0 0.00 0.00 0.00 71 1006.7
20260504140449 16 0.0 0.0 0.00 0.00 0.00 70 1006.7
20260504130437 16 0.0 0.0 0.00 0.00 0.00 67 1006.5
20260504110413 17 0.0 0.0 0.00 0.00 0.00 60 1005.2
20260504100401 18 0.0 0.0 0.00 0.00 0.00 55 1004.3
20260504081840 20 0.0 0.0 0.00 0.00 0.00 49 1003.6
20260504081339 20 0.0 0.0 0.00 0.00 0.00 49 1003.6
20260504080838 20 0.0 0.0 0.00 0.00 0.00 49 1003.6
20260504080337 20 0.0 0.0 0.00 0.00 0.00 49 1003.8
20260504070325 20 0.0 0.0 0.00 0.00 0.00 50 1003.8
20260504050301 20 0.0 0.0 0.00 0.00 0.00 41 1003.1
20260504045801 20 0.0 0.0 0.00 0.00 0.00 43 1003.0
20260504045304 20 0.0 0.0 0.00 0.00 0.00 37 1003.2
20260504044758 20 0.0 0.0 0.00 0.00 0.00 35 1003.0
20260504044257 20 0.0 0.0 0.00 0.00 0.00 37 1002.7
20260504043757 20 0.0 0.0 0.00 0.00 0.00 40 1002.7
20260504043255 20 0.0 0.0 0.00 0.00 0.00 43 1002.8
20260504042755 20 0.0 0.0 0.00 0.00 0.00 45 1002.9
20260504042253 20 0.0 0.0 0.00 0.00 0.00 45 1002.7
20260504041752 20 0.0 0.0 0.00 0.00 0.00 43 1002.7
20260504041251 20 0.0 0.0 0.00 0.00 0.00 44 1002.7
20260504040750 19 0.0 0.0 0.00 0.00 0.00 45 1002.6
20260504040249 19 0.0 0.0 0.00 0.00 0.00 45 1002.6
20260504035748 19 0.0 0.0 0.00 0.00 0.00 47 1002.9
20260504035248 19 0.0 0.0 0.00 0.00 0.00 47 1002.6
20260504034746 19 0.0 0.0 0.00 0.00 0.00 47 1002.7
20260504034245 19 0.0 0.0 0.00 0.00 0.00 48 1002.6
20260504033745 19 0.0 0.0 0.00 0.00 0.00 47 1002.5
20260504033243 20 0.0 0.0 0.00 0.00 0.00 48 1002.6